{"data":{"norad_id":53439,"epoch":"2026-09-19T15:32:53.163456Z","epoch_age_seconds":148879,"freshness":"FRESH","line1":"1 53439U 22097BD  26262.64783754 -.00000385  00000+0 -25240-6 0  9992","line2":"2 53439  53.1603 297.4033 0001172  71.2873 288.8257 15.34394429228298","mean_motion":15.34394429,"eccentricity":0.0001172,"inclination_deg":53.1603,"raan_deg":297.4033,"arg_perigee_deg":71.2873,"mean_anomaly_deg":288.8257,"bstar":-2.524e-7,"rev_number":22829,"period_min":93.848098818925,"perigee_km":461.91805002646,"apogee_km":463.52154686002,"semimajor_km":6840.8567984432,"source":"CELESTRAK","updated_at":"2026-09-20T09:00:40.234358Z"}}